www.pogodaiklimat.ru

Погода и климат >> Архив погоды >> Индонезия >> Бима


ПОГОДА в Биме

  • Прогноз погоды в Биме
  • Монитор погоды в Биме

АРХИВ ПОГОДЫ в Биме

Время (UTC), дата Ветер
(напр.,м/с)
 
Видим.   Явления Облачность Т
(С)
Тd
(С)
f
(%)
Тe
(С)
Тes
(С)
Комфортность P
(гПа)
Po
(гПа)
Тmin
(С)
Tmax
(С)
R
(мм)
R24
(мм)
S
(см)
00 18.03 штиль 0 8000 м 8/4 450 м
[Cu hum As trans Ci fib]
+26.2 +24.6 91 +37 +40 очень
душно
1010.0 1009.7 +24.4 3
03 18.03 СЗ 2 8000 м осадки на расстоянии 8/4 450 м
[Cu med, cong As op Ci fib]
+30.8 +24.6 70 +44 +52 опасность
перегрева
1009.9 1009.6
06 18.03 С 5 8000 м осадки на расстоянии 9/6 420 м
[Cb cap As op Ci fib]
+30.0 +24.0 70 +41 +43 опасность
перегрева
1007.4 1007.1
09 18.03 Ю 2 7000 м осадки на расстоянии 9/4 420 м
[Cu med, cong As op Ci fib]
+28.0 +24.5 81 +39 +40 очень
душно
1007.2 1006.9
12 18.03 штиль 0 6000 м 9/5 450 м
[Cu med, cong As op Ci fib]
+26.6 +25.0 91 +38 +38 очень
душно
1009.2 1008.9 +30.8
15 18.03 штиль 0 6000 м 8/4 450 м
[Cu med, cong Ac trans Ci fib]
+25.8 +24.4 92 +36 +36 очень
душно
1009.9 1009.5
18 18.03 штиль 0 6000 м зарница 8/5 420 м
[Cb cap Ac trans Ci fib]
+25.0 +24.2 95 +34 +34 очень
душно
1008.1 1007.7
21 18.03 штиль 0 6000 м 5/4 450 м
[Cu med, cong Ci fib]
+24.6 +23.8 95 +33 +33 очень
душно
1008.1 1007.8
00 19.03 штиль 0 10 км 6/4 420 м
[Cu hum Ac As Ci fib]
+26.0 +24.6 92 +37 +40 очень
душно
1009.1 1008.8 +24.0
03 19.03 С 5 10 км 6/4 450 м
[Cu hum Ac As Ci fib]
+31.4 +24.7 68 +45 +50 опасность
перегрева
1008.7 1008.4
06 19.03 С 4 9000 м осадки на расстоянии 8/5 450 м
[Cu med, cong As op Ci fib]
+29.8 +25.0 75 +43 +47 опасность
перегрева
1005.6 1005.3
09 19.03 Ю 2 7000 м осадки на расстоянии 9/8 420 м
[Cb cap As op Ci fib]
+30.0 +24.9 74 +43 +43 опасность
перегрева
1005.9 1005.6
12 19.03 штиль 0 6000 м 6/4 450 м
[Cu hum As trans Ci fib]
+27.2 +25.0 88 +39 +39 очень
душно
1007.8 1007.5 +32.4
15 19.03 штиль 0 6000 м 6/3 450 м
[Cu hum As trans Ci fib]
+26.2 +24.6 91 +37 +37 очень
душно
1009.3 1009.0
18 19.03 штиль 0 6000 м 8/4 450 м
[Cu hum As trans Ci fib]
+26.2 +24.6 91 +37 +37 очень
душно
1007.1 1006.8
21 19.03 штиль 0 6000 м 8/4 450 м
[Cu hum As trans Ci fib]
+27.0 +24.3 85 +38 +38 очень
душно
1007.4 1007.1
00 20.03 СЗ 3 10 км 8/4 450 м
[Cu hum Ac As Ci sp]
+28.6 +24.2 77 +40 +42 очень
душно
1008.7 1008.4 +25.0
03 20.03 СЗ 3 10 км 8/4 450 м
[Cu hum Ac As Ci sp]
+31.6 +25.2 69 +46 +52 опасность
перегрева
1008.3 1008.0
06 20.03 С 4 10 км 6/4 450 м
[Cu hum Ac As Ci fib]
+31.8 +24.8 67 +45 +51 опасность
перегрева
1005.8 1005.5
09 20.03 С 4 8000 м 6/4 450 м
[Cu hum As trans Ci fib]
+31.0 +24.8 70 +44 +45 опасность
перегрева
1006.1 1005.8
12 20.03 СВ 2 6000 м 8/4 450 м
[Cu med, cong Ac As Ci fib]
+29.0 +25.0 79 +42 +42 опасность
перегрева
1008.8 1008.5 +33.6
15 20.03 С 3 6000 м 8/4 450 м
[Cu hum Ac As Ci fib]
+28.4 +24.0 77 +39 +39 очень
душно
1009.6 1009.3
18 20.03 штиль 0 6000 м 9/5 450 м
[Cu Sc Ac As Ci fib]
+27.2 +24.8 87 +39 +39 очень
душно
1008.3 1008.0
21 20.03 штиль 0 6000 м 8/4 450 м
[Cu hum Ac As Ci fib]
+27.4 +25.2 88 +40 +40 очень
душно
1007.3 1007.0
00 21.03 С 5 10 км 3/3 450 м
[Cu med, cong Ci fib]
+29.2 +25.2 79 +42 +44 опасность
перегрева
1008.9 1008.6 +27.0
03 21.03 С 6 10 км 8/5 450 м
[Cu med, cong As trans Ci fib]
+31.0 +25.7 73 +46 +48 опасность
перегрева
1009.3 1009.0
06 21.03 С 7 8000 м осадки на расстоянии 9/6 420 м
[Cb cap As op Ci fib]
+31.2 +25.9 73 +46 +47 опасность
перегрева
1007.6 1007.3
09 21.03 С 3 8000 м 9/6 450 м
[Cu Sc As trans Ci fib]
+30.0 +24.0 70 +41 +42 опасность
перегрева
1006.6 1006.2
12 21.03 С 2 6000 м 4/3 450 м
[Cu hum Ac trans Ci fib]
+28.8 +25.0 80 +42 +42 опасность
перегрева
1009.0 1008.7 +32.0
15 21.03 штиль 0 6000 м 4/3 450 м
[Cu hum Ci fib]
+27.2 +25.3 89 +39 +39 очень
душно
1010.4 1010.1
18 21.03 штиль 0 6000 м 9/4 450 м
[Cu hum Ac As Ci fib]
+27.0 +25.7 93 +40 +40 очень
душно
1009.5 1009.2
21 21.03 штиль 0 6000 м 8/3 450 м
[Cu hum Ac trans Ci fib]
+26.0 +24.9 94 +37 +37 очень
душно
1009.0 1008.7
00 22.03 штиль 0 7000 м 8/4 450 м
[Cu hum As trans Ci fib]
+27.2 +25.6 91 +40 +43 очень
душно
1009.4 1009.1 +25.6
03 22.03 В 7 7000 м осадки на расстоянии 8/4 450 м
[Cu med, cong As trans Ci fib]
+31.0 +25.9 74 +46 +48 опасность
перегрева
1009.5 1009.3
06 22.03 С 8 7000 м осадки на расстоянии 9/6 420 м
[Cb cap As trans Ci fib]
+31.8 +25.7 70 +47 +48 опасность
перегрева
1007.0 1006.7
09 22.03 штиль 0 8000 м осадки на расстоянии 9/6 450 м
[Cu med, cong As op Ci fib]
+30.0 +26.3 81 +46 +46 опасность
перегрева
1006.8 1006.5
12 22.03 штиль 0 6000 м зарница 8/5 400 м
[Cb cap As trans Ci fib]
+28.2 +25.5 85 +41 +41 опасность
перегрева
1009.1 1008.8 +32.2
15 22.03 штиль 0 6000 м 6/4 450 м
[Cu hum As trans Ci fib]
+27.0 +25.1 89 +39 +39 очень
душно
1010.4 1010.1
18 22.03 штиль 0 6000 м 6/4 450 м
[Cu hum As trans Ci fib]
+26.0 +24.6 92 +37 +37 очень
душно
1009.1 1008.8
21 22.03 штиль 0 6000 м 6/4 450 м
[Cu hum As trans Ci fib]
+25.8 +24.7 94 +37 +37 очень
душно
1008.2 1007.9
00 23.03 З 2 8000 м 9/4 450 м
[Cu hum Ac As Ci fib]
+26.4 +23.7 85 +36 +38 очень
душно
1010.0 1009.7 +25.0
03 23.03 З 3 10 км 8/4 450 м
[Cu hum As trans Ci fib]
+31.2 +25.0 70 +45 +52 опасность
перегрева
1009.3 1009.0
06 23.03 С 8 6000 м осадки на расстоянии {гроза} 9/6 420 м
[Cb cap As op Ci fib]
+29.0 +24.7 78 +41 +42 опасность
перегрева
1007.9 1007.6 0.0
09 23.03 С 7 7000 м 9/4 450 м
[Cu med, cong As op Ci fib]
+29.2 +23.1 70 +39 +39 очень
душно
1007.3 1007.0
12 23.03 СВ 3 6000 м 9/6 450 м
[Cu med, cong As op Ci fib]
+27.6 +23.8 80 +38 +38 очень
душно
1009.8 1009.5 +32.4
15 23.03 штиль 0 6000 м осадки на расстоянии 9/6 450 м
[Cu med, cong As op Ci fib]
+26.8 +23.5 82 +36 +36 очень
душно
1009.5 1009.2
18 23.03 штиль 0 6000 м осадки на расстоянии 9/6 450 м
[Cu med, cong As op Ci fib]
+26.2 +23.7 86 +36 +36 очень
душно
1008.3 1008.0
21 23.03 штиль 0 6000 м 9/6 450 м
[Cu med, cong As op Ci fib]
+25.4 +24.0 92 +35 +35 очень
душно
1008.3 1008.0
00 24.03 штиль 0 8000 м 6/3 420 м
[Cu hum Ac trans Ci fib]
+26.6 +24.4 88 +37 +41 очень
душно
1009.1 1008.8 +25.0 0.0
03 24.03 С 3 10 км 8/4 450 м
[Cu hum Ac As Ci fib]
+30.8 +24.0 67 +42 +49 опасность
перегрева
1009.6 1009.3
06 24.03 С 5 9000 м 8/5 450 м
[Cu med, cong Ac As Ci fib]
+31.2 +25.0 70 +45 +48 опасность
перегрева
1007.1 1006.8
09 24.03 В 3 7000 м в посл. час дождь {гроза} 9/8 420 м
[Cb cap As op Ci fib]
+25.4 +23.7 90 +35 +35 очень
душно
1007.9 1007.6 19
12 24.03 штиль 0 4000 м слаб. дождь 10/8 420 м
[Cb cap As op]
+25.4 +24.9 97 +36 +36 очень
душно
1010.2 1009.9 +32.6 2
15 24.03 штиль 0 5000 м мгла 9/6 450 м
[Cu Sc Ac As Ci fib]
+25.2 +24.4 95 +35 +35 очень
душно
1010.4 1010.1 0.0
18 24.03 штиль 0 5000 м дымка 9/6 450 м
[Cu Sc Ac As Ci fib]
+24.8 +24.3 97 +34 +34 очень
душно
1009.1 1008.7 0.0
21 24.03 штиль 0 5000 м дымка 9/6 450 м
[Cu Sc Ac As Ci fib]
+24.8 +24.3 97 +34 +34 очень
душно
1009.1 1008.7 0.0

 

Местоположение метеостанции Бима (Индонезия): широта -8.55 долгота 118.70 высота над уровнем моря 2 м.

В архиве по умолчанию представлена погода в Биме за последнюю неделю. Архивные данные за месяц целиком и за предыдущие месяцы, начиная с января 2011 года, Вы можете получить, выбрав интересующий диапазон дат из раскрывающегося списка и нажав кнопку "Ввод!".


*Определитесь, кто Вы:
робот инопланетянин человек

Внимание! Время в таблицах - всемирное. Для получения местного времени необходимо прибавить поправку, которая равна 8 ч.

Смотрите также архив погоды в соседних городах и на ближайших метеорологических станциях:

Погода в Сумбава-Бесаре (Индонезия) (142 км)
Погода в Рутенге (Индонезия) (193 км)
Погода в Аэропорту Умбу Механг Кунда (Индонезия) (218 км)
Погода в Матараме (Индонезия) (290 км)
Погода в Денпасаре (Индонезия) (390 км)
Погода в Маумере (Индонезия) (391 км)
Погода в Аэропорту Султана Хасануддин (Индонезия) (398 км)
Погода в Уджангпанданге (Индонезия) (398 км)
Погода в Сабу (Индонезия) (406 км)
Погода в Ларантуке (Индонезия) (471 км)

Пояснения к столбцам:

Ветер - указаны скорость ветра в м/с - средняя за 10 мин, порывы в срок и между сроками (в фигурных скобках) и направление, откуда дует ветер: С - северный, СВ - северо-восточный, В - восточный, ЮВ - юго-восточный, Ю - южный, ЮЗ - юго-западный, З - западный, СЗ - северо-западный.
Видимость - горизонтальная дальность видимости в метрах или километрах. При видимости от 1 до 10 км при отсутствии осадков обычно наблюдается дымка, при ухудшении видимости до 1 км и менее - туман. В сухую погоду видимость может ухудшаться дымом, пылью или мглою.
Явления - указаны атмосферные явления, наблюдавшиеся в срок или в последний час перед сроком; фигурными скобками обозначены явления, наблюдавшиеся между сроками (за 1-3 часа до срока); квадратными скобками обозначены град или гололедные отложения с указанием их диаметра в мм.
Облачность - указаны через наклонную черту общая и нижняя облачность в баллах и высота нижней границы облаков в метрах; квадратными скобками обозначены формы облаков: Ci - перистые, Cs - перисто-слоистые, Cc - перисто-кучевые, Ac - высококучевые, As - высокослоистые, Sc - слоисто-кучевые, Ns - слоисто-дождевые, Cu - кучевые, Cb - кучево-дождевые. Подробнее классификацию облаков см. в Атласе облаков (PDF).
T - Температура воздуха - температура, измеренная на высоте 2 м над землей.
Td - Температура точки росы - температура, при понижении до которой содержащийся в воздухе водяной пар достигнет насыщения.
f - Относительная влажность воздуха - влажноcть воздуха, измеренная на высоте 2 м над землей.
Te - Эффективная температура - температура, которую ощущает одетый по сезону человек в тени. Характеристика душности погоды. При расчете учитывается влияние влажности воздуха и скорости ветра на теплоощущения человека.
Tes - Эффективная температура на солнце - температура, которую ощущает человек, с поправкой на солнечный нагрев. Характеристика знойности погоды. Зависит от высоты солнца над горизонтом, облачности и скорости ветра. Ночью, в пасмурную погоду, а также при ветре 12 м/с и более поправка равна нулю.
P - Атмосферное давление - приведенное к уровню моря атмосферное давление.
Po - Атмосферное давление - измеренное на уровне метеостанции атмосферное давление.
Tmin - Минимальная температура - минимум температуры воздуха на высоте 2 м над землей.
Tmax - Максимальная температура - максимум температуры воздуха на высоте 2 м над землей.
R - Количество осадков - Количество выпавших осадков за период времени, мм. При наведении курсора мыши на число - период времени, за который выпало указанное количество осадков.
R24 - Количество осадков - Количество выпавших осадков за 24 часа, мм.
S - Снежный покров - Высота снежного покрова, см. При наведении курсора мыши на число - состояние снежного покрова и степень покрытия местности в баллах.